Temp
58 59 57 57 56 55 54 54 53 54 55 53 53 53 53 53 53 53 53 53 52 52 52 52 52 52 51 50 50 51 51 51
57 56 56 55 53 53 52 52 52 52 53 51 51 51 52 52 53 52 51 51 51 50 51 51 52 51 51 52 51 49 49 51
55 52 51 49 49 49 50 50 50 50 51 50 50 51 52 51 50 49 50 50 50 50 50 50 50 51 54 52 53 53 52 51
53 52 49 48 48 47 48 47 48 49 49 49 50 50 50 49 49 48 48 48 48 49 49 49 48 52 50 50 51 52 52 51
49 47 46 45 45 45 44 44 46 47 46 49 49 48 48 47 48 47 46 46 47 47 47 51 48 48 48 48 49 51 51 50
46 46 43 43 43 44 44 45 44 44 44 45 47 46 46 46 45 45 45 45 46 46 49 52 48 50 48 46 46 50 49 49
44 45 44 42 42 43 43 42 41 42 42 43 44 44 44 43 44 48 46 45 49 47 48 48 47 48 46 45 45 46 46 47
46 45 42 40 40 41 39 38 39 39 41 41 42 45 46 46 48 48 50 50 50 52 49 47 48 46 46 44 44 43 42 44
44 41 39 38 39 39 37 37 37 43 40 40 43 45 44 47 47 48 50 49 45 47 44 46 46 45 44 43 42 41 41 41
43 40 38 38 38 37 35 35 38 45 39 39 42 43 44 46 46 46 46 46 45 41 42 42 43 43 43 42 41 41 41 41
42 40 38 37 37 37 34 35 38 39 37 37 40 43 44 46 44 39 38 41 40 40 42 38 37 42 42 41 40 40 42 43
40 40 38 36 37 39 36 38 39 38 36 38 42 41 41 43 44 43 40 39 38 40 39 37 35 39 39 39 39 40 43 44
39 38 37 37 38 38 38 39 38 36 36 40 41 41 41 40 42 42 42 42 39 39 39 38 35 35 36 37 37 38 40 41
37 37 37 38 39 38 38 39 38 36 36 36 36 38 40 41 40 41 41 41 40 39 39 38 39 38 38 38 38 38 39 40
37 37 38 38 38 37 38 39 39 38 37 39 37 39 39 39 39 39 39 42 41 40 39 39 38 37 37 37 37 38 39 39
37 37 38 38 38 37 40 41 41 39 40 41 39 38 39 38 36 35 35 37 38 39 40 38 38 38 37 37 37 39 38 38
37 36 37 38 38 38 41 41 39 40 40 40 39 40 40 40 38 34 34 34 33 36 38 39 38 37 37 37 38 36 35 35
33 32 35 36 37 39 42 39 39 41 40 39 39 39 37 37 37 35 34 33 34 33 35 34 35 35 31 34 36 36 36 36
36 35 35 35 36 42 42 39 38 39 37 37 37 37 35 35 35 33 33 33 33 32 33 33 33 32 30 31 33 34 35 36
36 34 34 36 37 39 39 38 38 37 36 36 35 34 33 33 32 31 30 31 31 30 31 33 32 31 31 29 30 31 34 36
MSLP
1008.43 1008.77 1010.68 1012.10 1012.65 1012.99 1013.32 1013.55 1013.79 1014.05 1014.16 1014.43 1014.51 1014.36 1014.21 1014.26 1014.39 1014.34 1014.30 1014.32 1014.44 1014.62 1014.71 1014.59 1014.29 1014.00 1013.80 1013.58 1013.37 1013.03 1012.61 1012.26
1009.59 1010.60 1011.78 1012.96 1013.47 1013.63 1013.92 1013.99 1014.15 1014.29 1014.41 1014.59 1014.63 1014.60 1014.41 1014.36 1014.30 1014.38 1014.58 1014.63 1014.66 1014.66 1014.50 1014.22 1013.87 1013.59 1013.41 1013.11 1012.81 1012.46 1012.06 1011.57
1011.00 1011.98 1012.98 1013.74 1014.07 1014.45 1014.50 1014.72 1014.80 1014.85 1014.93 1015.04 1015.06 1014.86 1014.68 1014.57 1014.62 1014.73 1014.67 1014.62 1014.56 1014.37 1014.08 1013.62 1013.33 1013.24 1012.90 1012.50 1012.06 1011.58 1011.04 1010.51
1012.02 1012.82 1013.68 1014.37 1014.89 1015.15 1015.33 1015.46 1015.59 1015.49 1015.52 1015.69 1015.64 1015.55 1015.38 1015.17 1014.89 1014.77 1014.66 1014.53 1014.21 1013.85 1013.41 1013.17 1012.99 1012.70 1012.22 1011.88 1011.50 1010.96 1010.38 1009.78
1012.96 1013.82 1014.59 1015.26 1015.61 1015.56 1015.90 1016.00 1016.10 1016.16 1016.20 1016.18 1016.04 1015.89 1015.76 1015.52 1015.16 1014.86 1014.65 1014.35 1013.88 1013.49 1013.15 1012.77 1012.55 1012.26 1011.82 1011.40 1011.06 1010.72 1009.91 1009.04
1014.25 1014.80 1015.52 1015.84 1015.75 1015.94 1016.08 1016.28 1016.61 1016.69 1016.73 1016.58 1016.35 1016.18 1015.99 1015.68 1015.27 1014.84 1014.47 1014.07 1013.68 1013.25 1012.92 1012.60 1012.41 1011.98 1011.47 1011.20 1010.95 1010.15 1009.42 1008.26
1014.94 1015.28 1015.67 1016.05 1016.20 1016.44 1016.69 1017.05 1017.23 1017.32 1017.28 1017.07 1016.78 1016.50 1016.12 1015.70 1015.21 1014.70 1014.27 1013.91 1013.32 1012.92 1012.69 1012.44 1012.18 1011.68 1011.36 1011.16 1010.74 1009.97 1008.81 1007.59
1015.10 1015.85 1016.01 1016.88 1017.33 1017.25 1017.54 1017.88 1017.95 1017.91 1017.63 1017.30 1016.90 1016.38 1015.98 1015.54 1015.04 1014.55 1014.00 1013.57 1013.10 1012.64 1012.45 1012.20 1011.92 1011.66 1011.31 1010.97 1010.69 1010.00 1008.76 1007.56
1015.98 1016.48 1017.23 1017.64 1017.68 1017.85 1018.25 1018.33 1018.30 1018.02 1017.83 1017.43 1016.85 1016.39 1016.07 1015.44 1015.02 1014.49 1013.97 1013.43 1013.27 1013.08 1012.83 1012.34 1012.13 1011.83 1011.24 1010.84 1010.54 1010.00 1009.02 1007.46
1016.73 1017.18 1017.70 1017.90 1018.11 1018.35 1018.77 1018.75 1018.42 1017.99 1017.92 1017.54 1016.96 1016.54 1016.18 1015.61 1015.13 1014.82 1014.42 1014.06 1013.79 1013.48 1013.10 1012.77 1012.44 1012.02 1011.42 1010.67 1009.96 1009.46 1008.59 1007.42
1017.03 1017.45 1018.05 1018.41 1018.59 1018.69 1019.02 1018.81 1018.49 1018.18 1017.95 1017.46 1017.03 1016.61 1016.17 1015.69 1015.43 1015.20 1014.91 1014.63 1014.32 1013.93 1013.58 1013.42 1012.98 1012.04 1011.43 1010.72 1009.64 1008.62 1007.33 1006.37
1017.56 1018.00 1018.53 1018.98 1018.92 1018.85 1018.81 1018.57 1018.32 1018.20 1017.90 1017.57 1017.25 1016.80 1016.43 1016.09 1015.82 1015.58 1015.32 1015.18 1014.90 1014.59 1014.33 1013.94 1013.34 1012.63 1012.04 1011.18 1010.06 1008.72 1007.34 1006.03
1018.06 1018.48 1018.86 1019.16 1019.11 1019.02 1018.84 1018.63 1018.40 1018.16 1017.83 1017.65 1017.53 1017.17 1016.85 1016.54 1016.29 1016.05 1015.87 1015.72 1015.75 1015.36 1014.85 1014.50 1013.95 1013.34 1012.73 1012.15 1011.13 1009.67 1008.41 1007.16
1018.77 1019.00 1019.18 1019.35 1019.29 1019.18 1018.91 1018.56 1018.31 1018.01 1017.69 1017.54 1017.43 1017.28 1017.24 1017.02 1016.71 1016.36 1016.15 1016.08 1016.01 1015.67 1015.25 1014.93 1014.39 1013.93 1012.90 1011.76 1010.74 1009.52 1008.58 1007.24
1019.18 1019.45 1019.57 1019.58 1019.47 1019.27 1018.92 1018.47 1018.11 1017.90 1017.77 1017.52 1017.22 1017.26 1017.30 1017.26 1017.12 1016.92 1016.55 1016.07 1015.88 1015.53 1015.33 1014.94 1014.53 1013.93 1012.91 1011.90 1010.78 1009.71 1009.03 1008.06
1019.73 1019.83 1019.85 1019.84 1019.68 1019.43 1019.03 1018.60 1018.23 1018.06 1018.00 1017.68 1017.52 1017.50 1017.49 1017.32 1017.19 1017.02 1016.83 1016.48 1016.04 1015.70 1015.38 1015.05 1014.59 1013.97 1013.25 1012.46 1011.53 1010.29 1009.27 1008.94
1020.25 1020.26 1020.26 1020.17 1020.02 1019.71 1019.26 1018.92 1018.68 1018.58 1018.50 1018.38 1018.20 1018.06 1017.92 1017.80 1017.65 1017.46 1017.25 1016.97 1016.72 1016.36 1015.91 1015.32 1014.82 1014.46 1013.83 1013.12 1012.25 1011.40 1011.08 1010.61
1020.80 1020.91 1020.83 1020.62 1020.41 1020.06 1019.69 1019.34 1019.18 1019.09 1019.11 1019.02 1018.80 1018.74 1018.66 1018.48 1018.39 1018.28 1018.00 1017.72 1017.44 1017.10 1016.72 1016.46 1015.70 1015.00 1014.40 1013.90 1013.34 1012.77 1012.21 1011.72
1021.22 1021.24 1021.24 1021.10 1020.93 1020.44 1020.16 1019.94 1019.81 1019.84 1019.79 1019.76 1019.63 1019.45 1019.44 1019.39 1019.30 1019.24 1019.10 1018.76 1018.37 1018.08 1017.74 1017.33 1016.86 1016.18 1015.92 1015.45 1014.78 1014.01 1013.27 1012.61
1021.54 1021.59 1021.65 1021.52 1021.29 1021.03 1020.81 1020.64 1020.48 1020.50 1020.53 1020.49 1020.41 1020.47 1020.45 1020.34 1020.24 1020.20 1020.02 1019.69 1019.40 1019.01 1018.54 1017.97 1017.50 1017.05 1016.73 1016.45 1015.90 1015.28 1014.55 1013.75
Wind_Speed
14 16 14 10 9 9 10 9 8 7 7 6 4 2 2 2 2 2 4 3 1 3 4 5 6 6 6 7 7 9 8 8
15 15 13 10 8 9 9 9 8 7 7 7 7 6 4 3 3 0 5 4 4 3 4 6 6 6 6 7 6 6 8 9
13 13 11 8 9 8 9 8 8 6 6 7 8 8 7 7 7 6 5 4 2 4 5 6 5 5 6 7 9 10 11 12
13 13 12 11 9 8 8 7 7 6 7 7 7 7 7 7 6 6 5 5 5 5 6 6 6 6 11 14 13 11 12 13
12 12 11 8 7 7 7 6 6 7 7 7 8 7 7 6 6 5 5 6 6 7 6 7 7 7 13 14 15 10 11 13
10 10 9 6 6 7 6 7 9 8 7 7 7 8 8 7 6 6 6 5 6 5 7 7 6 8 13 13 12 12 12 14
10 9 9 7 8 7 8 8 7 7 7 8 8 7 7 7 6 7 7 6 7 5 5 7 8 9 10 14 12 12 13 15
11 9 11 9 6 7 8 7 6 6 7 7 7 8 7 8 8 8 8 7 7 6 6 6 9 7 12 13 10 10 12 10
8 8 7 6 6 7 6 4 4 4 5 6 8 7 8 7 7 7 7 7 5 6 6 7 6 9 13 19 18 11 9 11
8 8 6 6 6 7 5 4 5 4 5 5 7 7 6 7 7 7 8 8 8 6 7 7 8 10 15 18 24 19 16 10
7 7 7 5 5 6 4 3 4 5 5 6 6 7 7 7 6 5 5 6 6 7 7 7 8 9 10 21 23 24 22 15
6 7 7 5 4 4 2 2 4 5 4 5 7 7 8 7 5 4 5 7 7 7 6 7 8 9 10 13 13 14 19 15
6 6 7 5 4 5 4 5 5 5 4 3 3 3 6 6 5 4 5 6 6 6 6 6 7 9 12 16 15 11 13 14
7 7 7 5 6 5 6 6 5 5 5 4 2 2 2 3 4 4 2 3 4 7 9 8 7 12 19 22 22 19 21 22
8 7 6 5 5 6 6 6 6 6 4 5 3 2 3 3 3 3 4 4 2 6 11 12 12 15 20 23 24 18 17 16
7 6 6 6 6 6 6 7 7 7 6 10 6 4 4 3 3 3 3 3 6 8 10 11 15 17 19 22 22 14 12 15
6 6 7 6 6 6 7 7 7 7 6 6 6 6 7 6 6 5 5 5 4 6 7 12 13 18 18 19 21 12 11 12
5 6 5 6 6 6 8 7 7 7 7 14 10 7 7 7 8 8 8 6 8 7 8 11 11 12 12 13 13 12 11 10
6 6 5 5 5 7 8 7 6 5 5 6 10 8 8 8 7 8 8 8 8 8 8 9 16 10 11 11 11 12 11 11
6 6 6 6 6 7 8 7 6 5 6 6 7 7 7 8 8 7 7 7 8 8 8 9 13 9 9 10 10 11 11 11
Wind_Direction
102 95 102 103 95 85 73 67 62 47 45 42 29 57 134 171 191 179 182 195 288 332 317 293 278 267 265 261 256 263 260 261
103 100 102 99 89 78 70 61 49 36 30 22 6 336 307 269 234 80 38 57 45 341 285 271 273 276 279 274 270 271 272 273
114 108 101 93 80 73 60 49 39 30 29 17 2 360 11 33 44 62 44 23 329 277 277 289 292 291 289 290 292 291 287 283
108 97 90 80 73 69 61 46 27 27 25 31 26 14 10 14 20 18 359 330 304 308 302 296 297 296 289 291 295 295 288 284
101 93 88 85 82 72 58 50 33 44 33 23 17 7 360 348 340 339 337 324 314 301 310 306 297 284 287 288 297 304 298 288
100 100 95 85 71 60 55 47 40 31 21 7 3 359 344 337 329 327 325 309 302 306 304 313 308 304 306 325 319 317 303 285
112 106 95 78 60 51 55 47 35 18 9 351 348 335 324 320 314 320 309 296 301 298 292 307 309 311 327 335 337 321 300 295
103 102 78 67 55 59 60 40 24 1 354 336 327 324 329 319 313 314 307 302 291 308 309 310 315 324 331 330 332 324 304 308
102 96 111 113 85 75 60 38 18 341 333 326 336 337 324 311 318 310 327 327 327 344 328 327 334 340 331 328 334 324 309 309
119 115 108 96 89 85 66 29 329 337 336 329 342 338 328 324 327 4 350 352 359 336 337 354 342 334 332 330 330 325 324 315
104 104 105 100 105 104 94 297 331 340 348 340 360 349 342 348 10 8 356 2 353 346 10 350 332 341 335 338 333 337 337 332
97 95 103 106 105 96 136 309 344 4 360 356 15 8 356 356 3 9 18 17 360 343 3 346 341 343 341 343 339 335 338 343
81 82 89 98 73 55 20 357 349 335 336 334 353 3 5 357 1 6 26 26 17 10 2 353 349 347 343 341 335 331 344 330
77 76 85 71 60 33 1 350 349 340 331 319 270 318 333 326 343 341 8 30 25 25 10 4 4 352 348 354 351 348 2 354
71 74 73 58 50 14 354 348 353 357 333 314 328 253 307 327 336 329 344 15 16 23 12 11 8 1 359 1 1 358 13 8
68 58 47 39 25 9 353 353 2 10 3 19 25 21 337 330 324 335 332 350 15 17 17 12 13 10 11 9 7 4 19 22
68 59 47 30 15 357 358 1 18 23 31 30 27 29 25 24 21 9 18 14 4 6 10 15 14 14 11 16 14 24 15 11
77 60 36 26 15 344 12 15 28 38 42 32 36 34 27 29 30 23 19 19 18 15 22 19 3 11 18 15 13 12 11 10
72 64 39 32 6 17 28 25 39 45 43 41 32 40 32 30 31 27 21 24 20 18 14 23 11 18 17 11 9 6 5 3
62 46 32 24 27 27 31 26 43 50 47 41 42 40 34 32 31 27 23 19 18 14 7 6 16 14 17 13 8 4 358 358